Location: Doughton Park
(36.4224°N, 81.1835°W)
Time: 22:18:54
(UTC-04:00)

ISS - All Passes

Search period start: 02 September 2014 00:00
Search period end: 12 September 2014 00:00
Orbit: 413 x 419 km, 51.6° (Epoch: 02 September)

Date Brightness Start Highest point End Pass type
(mag) Time Alt. Az. Time Alt. Az. Time Alt. Az.
02 Sep - 09:46:14 10° SW 09:49:30 61° SE 09:52:48 10° NE daylight
02 Sep - 11:24:14 10° WNW 11:26:30 17° NNW 11:28:46 10° NNE daylight
02 Sep - 16:17:23 10° NNW 16:20:18 27° NNE 16:23:11 10° E daylight
02 Sep - 17:54:06 10° WNW 17:56:59 27° SW 17:59:52 10° SSE daylight
03 Sep - 08:58:05 10° SSW 09:01:03 31° SE 09:04:01 10° ENE daylight
03 Sep - 10:34:58 10° W 10:37:47 25° NNW 10:40:36 10° NNE daylight
03 Sep - 15:29:11 10° NNW 15:31:35 18° NNE 15:33:58 10° ENE daylight
03 Sep - 17:05:16 10° WNW 17:08:31 54° SW 17:11:46 10° SSE daylight
04 Sep - 08:10:25 10° S 08:12:37 17° SE 08:14:50 10° E daylight
04 Sep - 09:45:56 10° WSW 09:49:06 41° NW 09:52:16 10° NE daylight
04 Sep - 14:41:10 10° N 14:42:46 13° NNE 14:44:23 10° NE daylight
04 Sep - 16:16:39 10° NW 16:19:59 77° NE 16:23:17 10° SE daylight
05 Sep - 08:57:09 10° SW 09:00:28 76° NW 09:03:48 10° NE daylight
05 Sep - 10:36:05 10° NW 10:37:41 13° NNW 10:39:16 10° N daylight
05 Sep - 15:28:10 10° NW 15:31:20 41° NE 15:34:31 10° ESE daylight
05 Sep - 17:05:37 10° W 17:07:49 17° SW 17:10:00 10° S daylight
06 Sep - 08:08:38 10° SSW 08:11:53 54° SE 08:15:09 10° ENE daylight
06 Sep - 09:46:28 10° WNW 09:48:50 18° NNW 09:51:13 10° NNE daylight
06 Sep - 14:39:47 10° NNW 14:42:37 25° NNE 14:45:26 10° E daylight
06 Sep - 16:16:22 10° WNW 16:19:21 30° SW 16:22:18 10° SSE daylight
07 Sep - 07:20:28 10° SSW 07:23:21 28° SE 07:26:15 10° ENE daylight
07 Sep - 08:57:09 10° W 09:00:02 27° NNW 09:02:56 10° NNE daylight
07 Sep - 13:51:32 10° NNW 13:53:48 17° NNE 13:56:05 10° ENE daylight
07 Sep - 15:27:30 10° NW 15:30:47 60° SW 15:34:04 10° SE daylight
08 Sep - 06:32:51 10° SSE 06:34:51 15° SE 06:36:51 10° E visible
08 Sep - 08:08:05 10° WSW 08:11:17 45° NW 08:14:30 10° NE daylight
08 Sep - 13:03:29 10° N 13:04:54 12° NNE 13:06:20 10° NE daylight
08 Sep - 14:38:50 10° NW 14:42:09 69° NE 14:45:27 10° SE daylight
09 Sep - 07:19:16 10° SW 07:22:35 85° NW 07:25:55 10° NE daylight
09 Sep - 08:57:59 10° NW 08:59:44 14° NNW 09:01:30 10° N daylight
09 Sep - 13:50:17 10° NW 13:53:25 37° NE 13:56:32 10° ESE daylight
09 Sep - 15:27:33 10° W 15:29:56 18° SW 15:32:18 10° S daylight
10 Sep - 06:30:43 10° SSW 06:33:56 48° SE 06:37:09 10° ENE visible
10 Sep - 08:08:21 10° WNW 08:10:49 19° NNW 08:13:19 10° NNE daylight
10 Sep - 13:01:51 10° NNW 13:04:36 23° NNE 13:07:21 10° E daylight
10 Sep - 14:38:19 10° WNW 14:41:22 34° SW 14:44:24 10° SSE daylight
11 Sep - 05:42:32 10° S 05:45:19 25° SE 05:48:07 10° ENE visible
11 Sep - 07:19:00 10° W 07:21:57 29° NNW 07:24:55 10° NNE daylight
11 Sep - 12:13:32 10° NNW 12:15:42 16° NNE 12:17:51 10° ENE daylight
11 Sep - 13:49:25 10° NW 13:52:43 69° SW 13:56:01 10° SE daylight
